Theta_e
298 297 298 298 298 297 296 296 295 295 295 295 295 296 296 299 299 300 300 299 298 299 299 299 300 300 300 301 301 300 300 300 300 298 300 299 304 302 302 301 303 301 299 301 299 300 302 305 304 305 305 305 305 305
298 297 297 298 298 298 296 296 296 295 295 295 295 296 298 298 300 301 302 301 301 301 301 301 300 299 299 299 300 300 301 301 301 302 301 300 300 302 302 302 300 302 302 302 301 303 302 303 303 304 304 304 303 303
298 297 297 298 299 299 296 295 295 295 295 295 296 298 300 301 301 301 302 302 303 301 300 300 300 300 299 299 299 300 300 301 301 301 301 303 303 297 302 302 300 300 301 303 303 303 303 303 303 303 303 302 302 303
298 297 296 297 298 298 296 295 295 295 295 295 297 299 300 301 301 300 301 302 302 302 301 301 300 300 300 300 300 300 300 300 300 301 302 302 302 301 302 300 301 302 302 303 303 302 302 302 303 303 302 302 302 302
297 296 296 297 298 298 295 295 295 295 295 296 299 299 300 300 300 301 301 300 301 301 300 300 300 300 300 300 301 301 300 300 301 302 302 301 302 302 302 303 303 303 303 303 303 302 302 302 302 302 302 302 302 302
297 296 296 296 297 299 295 294 294 295 295 297 299 300 299 300 300 301 300 300 300 301 300 301 300 301 301 303 302 301 301 300 300 301 302 302 302 302 303 302 302 303 303 303 303 303 302 302 302 301 301 302 302 302
297 297 296 296 296 298 295 294 294 294 296 297 299 299 299 299 300 302 300 300 300 301 300 300 298 301 300 301 302 301 302 302 300 301 302 302 302 302 303 304 303 303 302 302 302 302 301 302 302 303 303 302 301 302
298 297 296 296 296 297 295 294 294 294 297 298 299 299 299 298 299 301 301 301 302 301 301 300 299 299 300 302 301 300 301 302 302 303 303 303 303 301 303 301 302 302 301 301 302 301 300 301 301 302 301 301 301 301
300 298 297 295 296 298 296 294 294 296 300 299 299 299 299 301 301 301 301 302 302 301 300 299 298 294 300 300 299 299 301 302 302 303 303 303 303 303 302 301 301 301 301 302 301 301 300 300 301 301 300 300 300 299
301 298 297 296 296 299 295 294 295 299 301 299 298 300 301 301 301 300 299 300 300 300 299 299 299 300 299 299 299 299 300 301 301 300 301 303 300 302 302 302 302 302 301 301 300 300 299 299 300 300 300 299 299 298
301 300 300 295 296 297 294 295 297 301 300 299 299 300 300 300 298 299 300 300 299 299 299 298 298 298 299 297 297 300 300 298 301 297 299 299 297 298 302 302 301 300 300 300 300 300 298 299 300 299 299 298 298 296
302 300 300 295 297 295 294 297 300 300 300 299 299 299 299 298 298 298 297 297 297 297 298 299 300 299 299 299 300 300 302 300 301 298 301 300 297 301 301 301 301 301 300 298 298 298 298 299 298 298 297 297 296 295
303 301 300 298 297 295 296 300 300 300 299 299 299 298 297 297 297 298 294 293 294 299 299 300 298 300 299 299 299 299 300 300 297 300 300 297 300 300 300 300 300 298 297 296 297 297 298 298 297 296 295 295 295 296
304 301 299 299 299 298 298 299 300 300 299 299 298 297 297 297 297 294 294 296 299 299 300 299 297 298 298 297 298 300 297 298 298 300 297 297 300 298 297 297 296 296 295 295 296 298 298 296 294 295 295 295 295 295
302 300 299 299 297 298 298 300 300 299 299 298 297 297 295 296 297 298 299 299 299 300 299 298 296 296 295 299 298 297 299 297 298 296 294 298 297 296 296 295 294 294 294 295 295 297 296 295 294 295 295 295 294 294
302 299 299 299 298 298 300 300 300 299 299 298 297 298 297 296 296 297 298 298 299 299 298 297 293 296 295 295 298 296 295 296 294 298 297 296 295 295 294 294 294 294 294 295 297 296 294 294 294 294 294 294 294 295
300 299 299 298 297 299 300 299 300 298 298 297 297 297 297 297 297 297 298 298 299 298 295 295 295 293 294 296 297 292 298 298 296 295 295 294 294 293 293 293 294 294 295 295 295 294 294 294 295 294 293 293 294 294
299 299 299 297 298 300 300 299 298 298 298 297 297 297 297 297 297 298 298 298 298 298 297 297 296 296 293 293 292 294 296 295 294 294 293 293 293 293 294 294 294 294 293 294 293 293 294 294 294 294 294 294 295 295
299 299 297 298 299 299 298 298 298 298 297 297 297 297 297 297 297 297 297 297 297 297 297 296 296 296 295 295 297 295 294 293 292 292 293 294 294 294 294 294 294 292 293 294 294 294 295 294 295 295 295 295 294 294
299 297 298 300 299 297 298 298 298 297 295 297 297 297 297 297 297 297 297 297 297 297 297 297 295 295 296 296 294 293 292 292 292 293 294 293 293 294 293 294 293 293 294 294 295 295 295 295 295 294 294 294 294 293
297 298 300 299 298 297 297 297 297 297 296 296 296 296 296 296 296 297 297 296 297 296 296 295 296 296 295 294 293 292 293 293 294 294 294 294 293 294 294 294 294 294 294 295 295 294 294 294 294 294 293 293 293 293
297 299 299 297 297 297 297 297 296 296 296 295 295 295 295 294 295 295 295 296 296 296 296 296 295 295 294 292 292 292 293 293 293 294 294 295 293 293 294 294 294 295 295 295 294 294 294 293 293 293 293 292 292 292
298 299 298 297 296 296 295 296 296 296 291 294 295 294 294 294 295 295 296 296 296 295 295 294 293 293 291 292 292 293 293 293 293 294 293 295 293 293 294 294 295 295 295 295 294 294 293 293 293 292 292 292 292 291
298 298 297 296 295 294 295 295 295 295 295 295 295 293 292 293 295 295 295 295 294 293 293 292 291 291 292 292 292 292 292 292 292 293 293 294 295 294 294 294 295 295 294 294 294 294 293 293 293 292 291 291 291 291
297 295 296 292 295 293 292 295 294 295 295 295 293 293 293 295 295 296 294 293 293 292 291 291 290 291 291 291 291 292 292 291 292 292 292 293 293 293 294 294 294 294 294 294 294 293 293 292 292 291 291 291 291 290
293 294 291 292 293 294 293 294 294 295 295 295 294 295 296 295 293 294 292 293 292 292 291 290 289 291 291 291 291 292 293 292 292 291 292 292 293 292 293 293 293 293 294 293 293 293 292 292 291 291 291 290 290 290
289 291 293 294 295 295 295 294 294 295 295 295 294 295 294 292 292 292 292 292 292 291 290 289 289 291 291 292 292 293 292 293 292 292 292 292 292 292 292 292 292 292 293 293 293 292 292 291 291 290 290 290 290 290
294 294 294 295 295 295 294 295 295 295 294 294 295 295 293 292 290 291 291 292 291 290 290 290 290 290 291 292 293 293 293 293 293 292 292 292 292 292 292 292 292 292 293 293 292 291 291 291 290 290 290 290 289 289
295 295 295 294 294 294 294 295 294 295 295 294 293 293 291 291 291 291 291 291 290 290 291 291 291 290 290 292 292 292 293 293 293 292 292 292 292 292 292 291 291 292 292 292 291 291 291 290 290 290 289 289 288 288
294 295 293 293 292 293 293 294 294 294 293 293 293 292 291 290 290 290 290 290 289 290 290 291 291 291 291 291 292 291 291 291 291 291 291 290 290 290 291 291 291 291 291 290 290 290 290 289 289 288 288 287 287 287
294 294 293 293 290 292 293 293 293 292 292 292 291 291 290 290 289 289 289 289 289 289 289 290 290 290 291 291 291 291 290 290 290 290 290 289 289 290 289 289 288 288 287 287 287 287 287 287 287 287 287 287 286 286
294 294 294 292 291 291 292 291 291 291 291 291 290 290 289 289 289 289 290 289 289 289 289 289 290 290 290 290 290 289 289 289 288 288 287 287 287 287 287 287 287 287 287 287 287 287 287 287 287 286 286 286 286 286
294 294 293 292 291 291 291 292 292 293 292 291 291 290 290 290 290 290 289 289 289 289 289 289 289 289 288 288 288 288 287 287 287 287 286 286 286 285 286 287 287 287 287 287 286 286 286 286 286 286 286 286 286 286
Wind_Speed
18 16 15 15 15 16 17 17 16 15 14 13 14 13 12 10 9 12 14 11 9 8 25 30 26 25 21 16 9 17 13 4 2 2 3 4 3 4 4 6 3 6 3 8 4 4 10 1 14 8 12 24 31 29
21 19 19 19 17 17 18 18 17 14 13 13 13 12 12 12 10 11 17 16 17 15 27 35 38 35 34 31 32 18 16 20 6 3 2 2 3 5 9 20 5 7 8 7 7 9 15 39 30 38 33 27 31 34
23 22 22 21 18 18 18 17 16 14 12 11 12 13 13 12 11 13 20 19 19 16 23 22 24 25 21 24 18 16 18 17 13 24 14 4 8 2 7 11 8 5 13 6 10 17 19 30 37 39 34 32 33 36
27 25 24 23 18 18 18 17 16 14 11 12 12 13 13 13 14 15 18 19 18 11 7 17 27 33 32 23 21 27 38 34 32 25 16 5 6 8 7 10 10 14 7 13 16 20 30 29 24 29 37 35 37 37
30 28 27 23 20 18 17 18 17 12 11 11 13 14 13 14 15 19 22 25 21 14 6 18 40 10 25 23 14 16 26 36 28 15 7 7 7 7 7 7 17 13 13 5 13 24 23 32 38 37 37 40 39 38
34 31 28 24 21 20 17 18 16 12 12 11 14 15 14 14 14 18 8 3 5 10 6 3 16 31 4 7 16 21 23 25 25 7 7 11 26 11 4 6 21 15 23 25 25 29 34 39 41 33 28 34 35 33
37 33 30 26 22 20 19 18 15 13 13 13 14 14 15 15 15 12 6 8 8 8 5 6 7 6 16 16 14 20 15 10 14 7 8 13 17 12 3 12 39 21 17 17 16 19 21 21 28 29 26 32 34 35
37 35 31 27 24 21 19 17 14 14 13 13 14 15 18 19 18 14 12 10 18 16 7 3 5 8 8 7 9 10 7 6 7 6 5 4 3 3 4 13 17 21 21 12 17 26 29 34 33 31 30 34 38 39
39 36 30 29 27 22 18 16 14 14 12 12 14 16 19 6 5 6 2 5 6 10 3 5 2 4 6 6 8 6 5 3 5 3 4 3 2 5 6 15 25 22 12 20 29 32 33 29 32 34 33 34 32 37
38 35 33 30 27 22 19 16 14 11 11 11 12 6 4 5 2 6 4 2 7 6 8 6 4 4 6 4 5 4 4 2 3 3 3 3 4 12 8 14 18 19 21 22 27 33 38 35 32 35 36 37 34 36
39 37 33 31 26 22 20 17 13 9 9 6 4 4 6 6 10 4 3 4 5 4 7 7 12 6 8 4 3 4 3 3 3 4 2 3 3 2 10 17 20 23 27 28 32 37 38 36 37 39 43 41 39 39
38 37 35 32 27 23 20 17 13 12 6 5 5 10 5 3 4 3 3 2 5 4 6 5 5 8 7 6 5 4 3 3 6 3 2 3 3 6 14 21 27 26 31 36 37 36 37 33 36 41 43 40 37 39
39 37 35 31 26 23 21 17 14 11 10 7 4 2 3 5 4 6 7 3 3 6 7 5 2 3 4 6 5 2 4 6 4 3 4 4 1 17 23 27 31 34 34 38 35 39 29 38 43 39 40 39 40 37
40 36 36 31 26 24 21 18 17 15 8 7 6 5 5 4 5 5 4 4 5 5 4 2 2 5 6 4 4 4 4 2 3 3 5 2 16 27 33 33 33 38 37 37 36 31 34 44 41 42 37 35 36 35
39 36 35 30 27 24 22 22 19 19 10 6 7 6 7 11 6 3 6 5 5 5 3 2 4 4 3 3 3 3 3 5 4 4 2 17 33 35 36 37 36 37 38 37 37 34 47 42 41 36 35 34 31 31
39 34 35 32 28 24 24 22 23 18 7 7 9 5 6 4 5 8 10 7 8 7 2 1 2 3 5 3 3 5 3 5 4 4 26 33 37 38 37 39 37 38 35 35 36 41 36 34 33 30 27 25 24 18
40 39 41 33 28 28 27 28 22 9 11 8 8 16 13 3 7 8 9 9 12 7 2 3 3 8 3 3 3 3 4 4 20 30 33 34 36 39 40 41 41 38 34 37 34 28 28 27 21 18 17 15 15 16
43 42 35 34 36 32 35 20 10 11 9 12 6 15 20 14 14 10 11 11 9 10 7 5 2 3 4 4 4 2 9 24 29 31 34 36 39 38 37 39 38 30 30 26 20 21 18 15 17 20 20 21 24 26
45 40 33 38 43 28 12 13 11 7 15 6 17 13 11 12 19 17 14 13 11 11 5 3 4 3 4 4 5 17 24 26 28 34 35 34 33 36 37 33 28 26 23 21 16 12 9 13 18 21 23 27 31 31
38 35 34 42 47 15 9 7 11 5 4 7 9 12 13 11 11 14 13 13 13 8 6 4 4 4 5 15 21 25 22 24 27 28 31 33 32 33 29 25 21 20 16 10 9 10 13 17 19 21 23 24 26 26
37 35 36 47 30 12 7 8 7 6 4 5 3 7 5 9 12 15 15 14 14 7 5 12 13 15 17 22 17 14 18 19 25 28 27 30 31 28 26 22 17 13 10 11 13 13 14 16 17 19 20 21 20 19
36 40 31 28 6 12 7 10 4 8 7 4 5 8 4 4 6 8 10 9 7 9 12 14 14 17 21 17 14 13 16 17 19 20 21 22 24 24 22 18 13 12 11 13 14 15 16 17 17 17 15 14 14 15
31 36 15 7 4 6 5 14 8 8 3 4 5 3 4 4 5 11 4 7 7 11 14 14 15 16 13 10 10 11 13 16 18 17 19 19 15 15 14 12 11 10 11 12 12 13 14 15 14 13 12 12 12 13
28 10 6 7 5 4 8 6 8 7 5 3 3 3 3 5 9 5 3 6 8 13 14 12 11 8 7 4 8 11 13 16 16 14 14 15 13 12 11 11 10 9 8 9 9 11 12 13 12 12 12 11 11 11
9 7 10 4 6 6 4 5 4 3 3 4 4 3 3 7 3 3 3 5 16 15 10 9 8 6 5 6 7 9 10 14 11 11 11 10 9 6 6 8 9 8 8 8 9 10 11 12 12 11 9 10 10 10
3 4 6 8 6 6 5 5 8 5 4 4 5 4 5 3 2 4 3 11 16 13 10 11 9 4 3 3 7 8 8 10 10 8 10 10 7 5 7 8 8 9 8 8 9 10 10 9 9 8 8 9 9 9
5 3 6 8 9 7 4 3 6 3 5 5 4 4 3 3 5 4 6 12 11 7 9 10 9 6 4 5 4 4 5 6 7 7 6 6 6 5 6 7 8 8 7 7 9 10 10 10 9 9 9 9 8 8
4 9 7 13 6 7 4 3 4 5 3 7 10 4 6 6 4 4 6 10 9 9 10 10 9 7 5 4 3 3 3 3 2 1 2 4 5 5 5 5 4 3 5 7 8 9 11 11 11 11 11 11 11 12
4 11 12 4 4 4 6 4 5 5 8 10 5 3 3 4 5 6 6 7 9 10 10 10 10 9 7 3 1 1 1 1 1 1 1 4 5 6 7 8 8 8 8 8 10 11 12 13 14 14 14 15 15 14
6 14 5 4 4 4 5 7 7 8 9 8 6 4 3 4 6 7 6 6 9 10 9 9 10 11 10 8 5 3 1 1 1 2 3 5 8 10 11 11 10 11 12 14 15 14 14 15 15 15 15 16 16 17
18 6 4 3 2 3 8 10 9 8 6 5 6 4 4 4 6 8 8 8 8 9 9 9 10 11 11 10 9 7 6 5 5 5 5 7 8 9 10 11 12 13 14 15 16 16 16 16 16 17 17 17 17 17
8 5 5 3 3 9 11 4 5 3 4 3 3 5 4 3 3 5 11 14 12 12 11 10 10 9 9 9 8 7 7 6 5 6 7 8 9 11 12 12 13 13 14 14 15 15 15 15 15 15 16 17 17 18
6 8 7 6 4 5 5 5 4 3 3 4 5 9 10 7 4 5 7 13 13 12 12 11 11 10 10 9 8 7 7 7 8 8 9 10 9 11 14 14 13 14 14 14 14 14 14 15 16 16 17 17 18 19
Wind_Direction
272 276 287 291 296 304 303 302 301 305 308 314 319 325 332 339 338 314 313 322 288 261 279 274 278 269 271 262 267 289 313 290 259 209 234 244 241 243 282 263 275 267 292 283 285 236 276 66 336 298 314 306 302 303
270 275 278 285 292 303 300 296 299 296 298 305 316 324 326 325 324 308 301 310 307 265 277 289 288 284 275 274 271 263 248 274 255 267 268 278 289 278 273 284 279 254 202 260 199 254 275 286 291 296 298 287 299 303
269 269 271 278 289 294 295 293 293 289 292 302 309 315 317 318 314 301 298 298 292 283 297 296 300 315 299 293 294 242 267 244 244 251 263 241 250 150 267 270 273 260 241 252 289 269 264 283 298 298 298 302 303 302
265 265 265 272 279 285 288 289 285 284 287 295 302 307 311 311 303 297 292 291 285 276 273 287 309 302 312 299 279 263 269 263 263 265 258 256 259 221 251 264 263 273 275 261 262 279 285 286 297 301 301 299 299 302
260 261 263 266 271 276 282 286 281 280 280 285 297 303 308 306 304 295 294 297 282 240 278 301 310 329 318 310 294 278 265 260 251 246 240 258 249 243 247 267 263 243 255 257 270 280 287 290 302 302 302 306 312 308
254 254 258 259 262 270 275 283 282 275 271 281 293 302 304 304 304 306 314 7 343 223 287 305 295 299 280 288 295 311 301 272 234 233 245 236 247 230 241 257 274 247 269 268 270 285 292 296 300 304 305 309 310 306
250 253 255 253 256 263 268 274 276 268 267 281 295 297 294 294 288 269 262 283 306 290 298 289 276 278 299 306 298 303 307 281 232 231 227 249 256 240 237 260 270 301 312 321 318 322 313 325 313 320 318 316 318 309
244 249 250 247 248 254 261 268 267 260 265 285 294 291 289 289 285 265 274 251 250 252 260 270 274 306 302 305 305 307 296 285 239 240 241 242 277 243 262 249 292 314 327 321 330 331 323 320 318 318 316 320 317 315
246 244 242 242 243 250 257 260 256 253 274 288 290 294 293 280 160 175 267 264 261 217 233 227 227 269 302 308 295 305 304 280 275 253 234 223 200 235 254 323 326 331 342 334 330 322 323 315 312 314 319 317 308 305
244 238 238 234 239 245 249 245 239 246 274 281 291 263 227 179 242 291 266 184 189 217 215 244 207 264 298 295 287 277 266 274 281 249 252 237 254 279 360 2 2 347 331 317 320 319 322 314 309 310 313 310 303 299
241 235 231 234 235 241 241 233 221 243 266 272 221 234 214 249 301 183 188 190 193 241 222 234 218 239 257 222 254 251 282 260 263 266 211 253 262 260 346 343 342 335 324 320 316 313 314 308 311 310 309 306 301 301
236 233 230 227 229 232 228 220 210 225 209 209 256 279 285 180 188 173 204 246 195 228 202 207 227 235 268 247 257 246 262 262 252 298 253 259 236 335 328 326 324 324 323 319 316 312 317 311 308 304 302 300 296 298
234 231 226 223 225 222 216 204 208 219 220 240 227 235 210 189 205 211 194 231 223 195 201 192 248 246 260 239 248 245 248 236 318 236 242 229 240 341 338 327 318 315 315 317 313 312 304 309 309 305 306 308 304 298
230 224 221 217 218 212 203 199 197 205 194 181 173 228 212 208 228 201 190 167 180 169 168 175 238 233 229 241 234 242 247 293 252 246 240 280 333 325 320 320 318 316 316 315 313 306 310 318 317 318 310 305 303 298
219 218 216 213 210 207 195 195 195 194 192 188 185 224 223 232 245 220 199 177 185 186 175 288 265 238 247 253 230 276 262 254 236 252 284 333 320 316 316 316 313 313 313 313 312 311 320 320 321 315 317 315 308 305
213 209 212 209 200 193 193 195 183 187 199 207 219 228 223 244 229 214 200 219 184 180 269 216 249 257 243 216 221 231 235 241 282 327 317 316 312 311 311 312 311 309 306 307 310 320 323 325 325 325 325 324 320 324
201 199 208 197 191 183 193 184 175 180 205 207 226 218 220 239 227 189 203 215 187 180 181 124 223 228 298 239 240 208 241 311 316 313 315 312 309 310 310 308 309 307 305 310 317 326 327 333 339 346 2 18 47 67
197 202 202 187 176 183 183 181 183 210 224 220 202 221 217 219 223 209 198 193 203 189 170 206 258 243 236 215 241 265 311 315 317 310 308 310 312 315 314 315 318 318 318 321 330 332 337 357 23 36 46 59 67 72
194 195 180 174 180 168 167 182 200 229 217 213 221 223 216 227 230 236 242 245 234 219 187 190 239 232 236 253 302 313 314 312 310 312 311 318 320 321 322 323 323 331 330 333 336 340 23 43 47 46 49 56 59 61
186 171 180 184 179 169 171 176 188 234 207 214 208 209 214 224 236 230 221 214 212 193 193 215 224 237 242 291 303 305 308 318 312 313 319 328 337 343 344 340 338 338 350 7 37 51 59 57 54 52 49 51 55 58
167 171 181 174 174 176 175 164 187 205 193 200 201 202 227 217 219 219 222 217 196 211 215 234 245 255 278 291 306 317 321 321 316 320 318 326 339 349 356 5 8 15 39 54 55 61 65 63 61 60 59 59 58 60
170 174 165 169 139 173 173 177 175 175 179 166 184 205 217 210 207 205 181 185 212 217 221 238 244 266 285 305 314 319 319 317 323 336 340 340 350 354 359 4 19 38 50 54 61 64 65 61 55 52 51 60 67 67
159 166 156 136 131 166 146 165 171 188 133 187 181 204 223 209 199 160 202 209 221 220 220 239 258 275 287 307 319 331 333 335 331 330 340 342 351 355 4 12 22 31 43 58 69 73 68 62 53 47 52 54 56 62
155 129 121 130 130 157 147 172 167 159 172 177 193 220 226 204 165 194 237 193 210 201 216 243 266 278 290 307 329 334 340 340 331 335 341 344 348 356 6 16 19 26 51 70 70 69 61 53 49 44 42 51 60 63
116 146 146 142 146 128 171 151 138 174 190 175 175 233 211 168 187 227 225 208 195 201 221 241 239 242 281 316 333 340 347 347 347 351 359 353 357 4 12 27 45 57 65 68 63 55 46 40 33 26 24 30 32 34
112 152 137 160 146 162 169 154 183 181 152 165 206 188 154 150 163 240 234 194 186 197 232 230 221 230 258 299 320 338 341 347 4 17 19 15 14 26 47 64 66 56 52 44 41 33 24 22 20 18 15 15 11 9
121 153 166 161 160 148 144 133 149 150 174 180 169 158 155 184 223 229 189 187 182 220 248 226 220 222 264 295 297 299 313 311 320 9 26 33 42 58 65 58 48 36 32 33 28 12 1 359 360 360 1 1 0 356
117 144 151 157 137 160 142 157 166 183 169 162 147 176 181 198 233 188 193 190 211 252 240 227 213 203 230 280 305 321 324 360 225 243 49 52 48 46 46 37 15 3 15 14 3 350 346 346 347 348 346 344 341 340
104 136 122 125 121 165 197 185 185 165 153 169 162 185 206 202 185 184 207 255 257 235 225 218 204 193 217 238 286 327 325 274 216 194 1 4 358 360 359 352 344 338 340 337 332 328 325 326 326 329 329 329 329 330
140 153 107 136 148 191 186 175 158 163 173 173 179 156 167 192 219 248 260 248 229 220 217 211 211 206 214 219 215 212 245 331 339 334 338 336 338 334 332 326 325 328 325 320 318 318 317 317 318 319 321 322 323 323
146 124 105 122 155 142 153 151 146 158 172 194 218 220 227 241 240 232 223 211 205 205 199 192 194 202 214 221 230 246 255 269 284 298 306 310 314 318 324 325 322 320 322 322 322 321 321 321 323 325 326 326 326 326
141 147 129 115 109 138 138 139 141 129 156 157 169 184 190 204 247 237 220 210 206 209 210 213 215 221 227 236 245 252 257 264 274 283 290 302 308 313 318 322 320 320 322 325 327 328 329 330 331 332 331 330 330 328
111 117 108 112 121 158 146 134 163 143 163 192 220 213 208 206 246 237 213 208 215 221 226 231 234 237 238 242 248 256 267 276 284 288 290 294 300 305 312 318 318 320 322 324 326 328 330 329 329 330 329 328 328 328